Погода в Мариуполе

Погода в Мариуполе : погода сейчас, прогноз погоды и архив. Всё, что Вы хотите узнать о погоде в Мариуполе!

Поиск расширенной информации на нашем сайте:

Другие новости

Новости СМИ2

Главная страница сайта

Новости сайта

02.10.2013

Напоминаем, что на нашем новом сайте вы можете получить высокодетализированные прогнозы погоды по пунктам России, СНГ и мира (включающие важные для авиации метеовеличины, такие как направление и скорость ветра, видимость, явления погоды, количество и форма облачности, нижняя и верхняя граница облачности), а также ознакомиться с разнообразными материалами по авиационной метеорологии и подборкой полезных ссылок на эту тему.

Сайт Метеоцентр.Азия посвящён разработке технологий оптимизации авиаметеорологического обслуживания, включая проектирование и перспективное создание нескольких автоматизированных авиаметеорологических систем:
- система выпуска высокодетальных прогностических карт явлений погоды для нижнего воздушного пространства по России и ближнему зарубежью;
- система верификации прогнозов TAF (выпускаемых синоптиками официальных АМСГ РФ и ближнего зарубежья) и AUTOTAF (выпускаемых сайтом Метеоцентр.Азия) - выявление ошибок, онлайн-сопоставление с фактической погодой METAR, автоматическое внесение коррективов в прогнозы при резком отклонении фактической погоды от прогноза, подсчёт оправдываемости прогнозов по элементам и в целом;
- система обработки, анализа и отображения авиаметеорологической информации для применения провайдерами метеорологической информации.

Рекомендуем: Деревянные окна

Погода в Мариуполе - сегодня

Время (UTC), дата Ветер
(°,м/с) 
Видим.   Явления Облачность Т
(°С)
Тd
(°С)
f(%) Тe
(°С)
Pmin
(гПа)
dP
(гПа)
Po
(мм)
O2
(г/м3)
Тmin Tmax R s Состояние
почвы
06 23.06.16 050 (СВ) 10 км    3/0 средняя 
[Ac trans]
+30.3 +21.3 59 +52  1019.3  -0.3  759  270  +25.7         
09 23.06.16 060 (СВ) 10 км    3/0 верхняя 
[Ci sp]
+33.4 +18.7 42 +49  1019.7  0.5  759  268           
12 23.06.16 070 (В) 20000 м    4/3 600 м верхняя 
[Cu med, cong|Ci sp]
+35.1 +11.1 23 +38  1018.8  -0.9  758  269           
15 23.06.16 020 (С) 10 км    3/0 верхняя 
[Cs]
+33.1 +10.1 24 +34  1017.4  -1.4  757  270           
18 23.06.16 020 (С) 10 км    4/0 средняя 
[Ac trans]
+29.6 +13.7 38 +36  1018.6  1.1  758  273    +35.1       
21 23.06.16 040 (СВ) 10 км    4/0 верхняя 
[Cs]
+26.2 +15.7 52 +36  1018.7  758  275           
00 24.06.16 010 (С) 10 км    3/0 верхняя 
[Cs]
+23.3 +13.7 55 +30  1019.2  0.4  758  279           
03 24.06.16 020 (С) 10 км    4/0 средняя, верхняя 
[Ac trans|Cs]
+22.3 +15.4 65 +31  1019  -0.2  758  279           
06 24.06.16 070 (В) 10 км    4/0 средняя 
[Ac trans]
+26.2 +15.9 53 +36  1018.9  758  275  +21         
09 24.06.16 090 (В) 20000 м    6/6 1000 м 
[Cu med, cong]
+28.6 +14.9 43 +37  1018.7  -0.1  758  274           
12 24.06.16 140 (ЮВ) 20000 м    4/4 1000 м 
[Cu hum]
+29.2 +18.3 52 +44  1017.8  -0.9  757  272           
15 24.06.16 140 (ЮВ) 20000 м    3/3 1000 м 
[Cu hum]
+28.2 +18.9 57 +44  1016.9  -0.9  757  272           
18 24.06.16 020 (С) 20000 м    3/0 верхняя 
[Cs]
+27.6 +14.2 44 +35  1017.2  0.3  757  274    +30       
21 24.06.16 050 (СВ) 20000 м    1/0 верхняя 
[Cs]
+25.8 +14.6 50 +34  1017.8  0.5  757  276           
00 25.06.16 050 (СВ) 20000 м    3/0 верхняя 
[Cc]
+24 +14.3 55 +31  1017.8  757  278           
03 25.06.16 050 (СВ) 10 км    4/4 1000 м 
[Sc]
+23 +14.3 58 +30  1018.3  0.4  758  279           
06 25.06.16 090 (В) 10 км    3/0 верхняя 
[Cc]
+26.8 +17.4 56 +40  1018.8  0.6  758  274  +23         
09 25.06.16 110 (В) 20000 м    3/3 1000 м 
[Cu hum]
+28.6 +17.7 52 +42  1018.8  0.1  758  273           
12 25.06.16 110 (В) 20000 м    3/3 1000 м 
[Cu hum]
+29.1 +18.7 54 +45  1018.6  -0.2  758  272           
15 25.06.16 140 (ЮВ) 20000 м    1/1 1000 м 
[Cu hum]
+28.2 +19 57 +44  1017.9  -0.7  758  272           
18 25.06.16 050 (СВ) 10 км    3/0 верхняя 
[Cs]
+26.9 +15.6 50 +36  1018  758  275    +29.1       
21 25.06.16 070 (В) 20000 м    ясно 
+25.1 +14.3 51 +32  1018.2  0.2  758  277           
00 26.06.16 050 (СВ) 20000 м    ясно 
+23.6 +13.6 53 +30  1017.7  -0.6  757  278           
03 26.06.16 050 (СВ) 10 км    ясно 
+22.3 +14.1 60 +29  1017.9  0.2  757  279           
06 26.06.16 070 (В) 20000 м    ясно 
+27.3 +16.1 50 +38  1018.2  0.4  758  274  +22.1         
Время (UTC), дата Ветер
(°,м/с) 
Видим.   Явления Облачность Т
(°С)
Тd
(°С)
f(%) Тe
(°С)
Pmin
(гПа)
dP
(гПа)
Po
(мм)
O2
(г/м3)
Тmin Tmax R s Состояние
почвы

Для получения пояснительной информации подведите курсор к названию столбца.

ПОГОДА в Мариуполе - архив

Всё, что Вы хотите узнать о погоде в Мариуполе - удобно и подробно!

Выберите нужную дату (начиная с 1 января 2015* года) и нажмите кнопку "Найти".
Будут отображены архивные сводки погоды по пункту Мариуполь, начиная с указанной даты.


Отображать данные в формате CSV (для использования в таблицах Excel)


Внимание! Наш архив погоды предназначен исключительно для личного некоммерческого использования в познавательных целях. Если Вам необходимы официальные справки о состоянии погоды (для производственных, юридических, коммерческих и т.п. целей), обращайтесь в органы Росгидромета.

*Примечание: данная дата относится к архиву по метеостанциям СССР (Россия, СНГ, Балтия).
Архив по метеостанциям Зарубежной Европы и Азии (кроме Китая) хранится 10 дней, по другим регионам земного шара (Китай, Африка, Америка, Австралия, Океания) - 1 день.

Мариуполь - район местоположения метеостанции


Название, широта, долгота, высота метеостанции:
Мариуполь (город) 47°ш. 37.5°д. 70 м над ур. моря [Украина]

Дополнительная информация

В oтличие oт бoльшинства пoгoдных сайтoв мы публикуем пoдрoбную метеoинфoрмацию в детальнoм прoфессиoнальнoм фoрмате.

Характеристики температуры и влажнoсти вoздуха измеряются на высoте 2 м в тени вдали oт зданий и деревьев.
Скoрoсть ветра измеряется на высoте 10 м (на урoвне рoста челoвека скoрoсть ветра ниже в 1.5-2 раза). Если метеoстанция нахoдится в гoрoде или в лесу, тo скoрoсть ветра занижена на 2-4 м/с пo сравнению с oткрытым местoм. Скoрoсть ветра над акватoриями крупных рек и oзёр, а также на вершинах хoлмoв на 2-5 м/с выше, чем в oбычных услoвиях.
Атмoсфернoе давление в разных тoчках местнoсти мoжет значительнo oтличаться oт давления на метеoстанции, в зависимoсти oт услoвий рельефа (при пoдъёме на 10 м давление пoнижается примернo на 1 мм рт.ст.).